FW1299 Weather Reports


Display with metric or nautical units.
time (UTC)temp
F
wind
direction
speed
MPH
gust
MPH
rain 1hr
in
rain 24hr
in
rain mn
in
humidity
%
barometer
mb
20260902203610 70 53 0.0 4.0 0.00 0.10 0.03 96 1019.3
20260902202611 70 21 0.0 2.0 0.00 0.10 0.03 95 1019.3
20260902201612 71 10 0.0 2.0 0.00 0.10 0.03 95 1019.3
20260902200610 71 52 0.0 0.0 0.00 0.10 0.03 94 1019.2
20260902195610 71 60 0.0 0.0 0.00 0.10 0.03 94 1019.5
20260902194609 71 60 0.0 0.0 0.00 0.10 0.03 95 1019.7
20260902193608 71 60 0.0 0.0 0.00 0.10 0.03 95 1019.6
20260902191608 71 60 0.0 0.0 0.00 0.10 0.03 97 1019.7
20260902185606 71 60 0.0 0.0 0.00 0.10 0.03 99 1019.8
20260902184606 70 60 0.0 0.0 0.00 0.10 0.03 99 1019.9
20260902183602 70 74 0.0 0.0 0.00 0.10 0.03 100 1019.7
20260902182602 70 74 0.0 0.0 0.00 0.10 0.03 100 1019.9
20260902181603 70 74 0.0 0.0 0.00 0.10 0.03 100 1020.2
20260902180601 69 74 0.0 0.0 0.00 0.10 0.03 100 1020.0
20260902174601 69 54 0.0 0.0 0.00 0.10 0.03 100 1020.5
20260902173600 69 71 0.0 0.0 0.00 0.10 0.03 100 1020.5
20260902172600 69 71 0.0 0.0 0.00 0.10 0.03 100 1020.5
20260902171602 69 267 0.0 0.0 0.00 0.10 0.03 100 1020.6
20260902170555 69 219 0.0 0.0 0.00 0.10 0.03 100 1020.5
20260902165554 68 58 0.0 0.0 0.00 0.10 0.03 100 1020.8
20260902164554 68 58 0.0 1.0 0.00 0.10 0.03 100 1020.8
20260902163555 68 25 0.0 4.0 0.00 0.10 0.03 100 1020.6
20260902162554 67 70 0.0 4.0 0.00 0.11 0.03 100 1020.6
20260902161555 68 51 0.0 3.0 0.00 0.13 0.03 100 1020.8
20260902160554 68 73 0.0 0.0 0.00 0.13 0.03 100 1020.5
20260902155553 68 75 0.0 0.0 0.00 0.13 0.03 100 1020.7
20260902154554 68 68 0.0 0.0 0.00 0.13 0.03 100 1020.7
20260902153548 68 68 0.0 0.0 0.00 0.13 0.03 100 1020.8
20260902152547 67 68 0.0 0.0 0.00 0.13 0.03 100 1020.8
20260902145549 67 48 0.0 0.0 0.00 0.13 0.03 100 1020.6
20260902144547 67 48 0.0 0.0 0.00 0.13 0.03 100 1020.6
20260902143548 67 65 0.0 0.0 0.00 0.13 0.03 100 1020.4
20260902142548 67 70 0.0 0.0 0.01 0.13 0.03 100 1020.5
20260902141548 68 53 0.0 1.0 0.01 0.13 0.03 100 1020.5
20260902140542 68 59 0.0 2.0 0.01 0.13 0.03 100 1020.4
20260902134537 68 90 0.0 0.0 0.02 0.13 0.03 100 1020.4
20260902133537 67 91 0.0 0.0 0.02 0.13 0.03 100 1020.5
20260902132538 67 91 0.0 0.0 0.01 0.12 0.02 100 1020.4
20260902131535 67 91 0.0 0.0 0.01 0.12 0.02 100 1020.1
20260902125534 67 91 0.0 0.0 0.00 0.11 0.02 100 1020.2
20260902124534 67 91 0.0 0.0 0.00 0.11 0.01 100 1020.1
20260902123532 67 91 0.0 0.0 0.00 0.11 0.01 100 1020.0
20260902122531 67 91 0.0 0.0 0.00 0.11 0.01 100 1019.9
20260902121531 67 91 0.0 0.0 0.00 0.11 0.01 100 1019.8
20260902115532 67 91 0.0 0.0 0.00 0.11 0.01 100 1019.7
20260902114532 67 69 0.0 0.0 0.00 0.11 0.01 100 1019.7
20260902113532 67 69 0.0 0.0 0.00 0.11 0.01 100 1019.6
20260902112533 67 69 0.0 0.0 0.00 0.11 0.01 100 1019.7
20260902111530 67 69 0.0 0.0 0.00 0.11 0.01 100 1019.6
20260902105528 67 69 0.0 0.0 0.00 0.11 0.01 100 1019.6
20260902104525 67 69 0.0 0.0 0.00 0.11 0.01 100 1019.6
20260902103525 66 69 0.0 0.0 0.00 0.11 0.01 100 1019.6
20260902102527 67 69 0.0 0.0 0.00 0.11 0.01 100 1019.6
20260902101519 67 72 0.0 0.0 0.00 0.11 0.01 100 1019.6
20260902100521 67 63 0.0 0.0 0.00 0.11 0.01 100 1019.5
20260902095520 67 63 0.0 0.0 0.00 0.11 0.01 100 1019.4
20260902093520 67 32 0.0 0.0 0.00 0.11 0.01 100 1019.1
20260902091520 67 40 0.0 0.0 0.00 0.11 0.01 100 1019.0
20260902090519 67 37 0.0 0.0 0.01 0.11 0.01 100 1019.0
20260902085519 67 37 0.0 0.0 0.01 0.11 0.01 100 1019.0
20260902084521 67 72 0.0 1.0 0.01 0.11 0.01 100 1018.9
20260902083520 67 70 0.0 0.0 0.01 0.11 0.01 100 1018.9
20260902082519 67 70 0.0 0.0 0.01 0.11 0.01 100 1018.8
20260902081520 67 70 0.0 0.0 0.01 0.11 0.01 100 1018.7
20260902080520 67 70 0.0 1.0 0.00 0.10 0.00 100 1018.7
20260902075519 68 75 0.0 0.0 0.00 0.10 0.00 100 1018.6
20260902074527 68 71 0.0 0.0 0.00 0.10 0.00 100 1018.4
20260902073521 68 71 0.0 0.0 0.00 0.10 0.00 100 1018.5
20260902072517 68 47 0.0 1.0 0.00 0.10 0.00 100 1018.1
20260902071522 68 63 0.0 0.0 0.00 0.10 0.00 100 1018.0
20260902070512 68 43 0.0 0.0 0.00 0.10 0.00 100 1018.2
20260902064513 68 58 0.0 0.0 0.00 0.10 0.00 100 1018.1
20260902063512 68 60 0.0 0.0 0.00 0.10 0.00 100 1018.0
20260902062515 68 347 0.0 0.0 0.00 0.10 0.00 100 1018.1
20260902061512 68 351 0.0 0.0 0.00 0.10 0.00 100 1017.9
20260902060513 68 3 0.0 1.0 0.00 0.10 0.00 100 1018.1
20260902055507 68 45 0.0 0.0 0.00 0.10 0.00 100 1018.1
20260902052507 68 20 0.0 0.0 0.00 0.10 0.00 100 1018.2
20260902051507 68 20 0.0 0.0 0.00 0.10 0.00 100 1018.4
20260902050508 68 82 0.0 0.0 0.00 0.10 0.00 100 1018.4
20260902045505 69 82 0.0 0.0 0.00 0.10 0.00 100 1018.4
20260902044506 69 65 0.0 0.0 0.00 0.10 0.00 100 1018.3
20260902043505 69 65 0.0 0.0 0.00 0.10 0.00 100 1018.2
20260902042503 69 23 0.0 0.0 0.00 0.10 0.00 100 1018.4
20260902041501 69 71 0.0 0.0 0.00 0.10 0.00 100 1018.4
20260902040500 69 72 0.0 0.0 0.00 0.10 0.00 100 1017.9
20260902034457 70 9 0.0 0.0 0.00 0.10 0.10 100 1017.5
20260902033455 70 356 0.0 0.0 0.00 0.10 0.10 100 1017.6
20260902032449 71 354 0.0 0.0 0.00 0.10 0.10 100 1017.8
20260902031449 71 29 0.0 0.0 0.00 0.10 0.10 100 1017.3
20260902030449 71 267 0.0 0.0 0.00 0.10 0.10 100 1017.0
20260902025448 71 267 0.0 0.0 0.00 0.10 0.10 100 1016.8
20260902024449 71 267 0.0 0.0 0.00 0.10 0.10 100 1016.7
20260902023447 70 267 0.0 0.0 0.00 0.10 0.10 100 1016.6
20260902022445 70 267 0.0 0.0 0.00 0.10 0.10 100 1016.7
20260902020446 70 267 0.0 0.0 0.00 0.10 0.10 100 1016.4
20260902015439 70 267 0.0 0.0 0.00 0.10 0.10 100 1016.1
20260902014439 70 267 0.0 0.0 0.00 0.10 0.10 100 1015.6
20260902013443 70 267 0.0 0.0 0.00 0.10 0.10 100 1015.4
20260902011439 70 267 0.0 0.0 0.01 0.10 0.10 100 1015.7
20260902010438 70 267 0.0 0.0 0.05 0.10 0.10 100 1015.1
20260902005439 70 267 0.0 0.0 0.07 0.10 0.10 100 1014.8
20260902004440 70 267 0.0 0.0 0.07 0.10 0.10 100 1014.5
20260902002436 71 267 0.0 0.0 0.06 0.09 0.10 98 1015.2
20260902001436 72 147 0.0 1.0 0.06 0.09 0.09 95 1014.8
20260902000437 74 19 1.0 8.0 0.02 0.05 0.05 91 1014.3
20260901235436 76 41 2.0 6.0 0.00 0.03 0.03 87 1014.1
20260901233437 78 25 1.0 7.0 0.00 0.03 0.03 94 1014.6
20260901232436 79 250 0.0 0.0 0.00 0.03 0.03 95 1013.9
20260901231436 80 250 0.0 0.0 0.00 0.03 0.03 94 1013.3
20260901225434 81 250 0.0 0.0 0.00 0.03 0.03 92 1013.2
20260901224434 82 250 0.0 0.0 0.00 0.03 0.03 90 1013.3
20260901223433 82 250 0.0 0.0 0.00 0.03 0.03 89 1013.5
20260901222432 83 250 0.0 0.0 0.00 0.03 0.03 88 1013.3
20260901221431 84 250 0.0 0.0 0.00 0.03 0.03 86 1012.8
20260901220429 85 250 0.0 0.0 0.00 0.03 0.03 85 1013.2
20260901215429 85 250 0.0 1.0 0.00 0.03 0.03 82 1013.5
20260901214424 86 279 1.0 3.0 0.00 0.03 0.03 81 1013.6
20260901212426 87 284 0.0 2.0 0.00 0.03 0.03 82 1013.2
20260901210424 87 262 0.0 3.0 0.00 0.03 0.03 81 1013.5
20260901205425 87 243 0.0 5.0 0.00 0.03 0.03 81 1013.6